SAS4055 ENGM-ENZV

Flight info

Callsign SAS4055
Flight time 0h 40m
Altitude 34000
Route ATLAP DCT IPMOD DCT ROPNO
Aircraft A20N/M-SDE2E3FGHIRWXY/LB1

Departure

Time 2026-05-04 18:49
Airport Oslo-Gardermoen International Airport (ENGM)

Arrival

Time 2026-05-04 19:30
Airport Stavanger Airport, Sola (ENZV)
Time Latitude Longitude Altitude Speed Heading
2026-05-04 18:02 60.19529 11.09655 677 ft 0 kts 196°
2026-05-04 18:35 60.19536 11.09659 677 ft 2 kts 194°
2026-05-04 18:35 60.19550 11.09666 678 ft 2 kts 195°
2026-05-04 18:36 60.19564 11.09674 678 ft 2 kts 194°
2026-05-04 18:36 60.19579 11.09681 678 ft 2 kts 194°
2026-05-04 18:36 60.19594 11.09689 678 ft 2 kts 194°
2026-05-04 18:36 60.19602 11.09694 678 ft 1 kts 195°
2026-05-04 18:37 60.19603 11.09694 678 ft 0 kts 195°
2026-05-04 18:41 60.19600 11.09692 678 ft 1 kts 196°
2026-05-04 18:41 60.19597 11.09683 678 ft 0 kts 270°
2026-05-04 18:42 60.19601 11.09670 678 ft 1 kts 302°
2026-05-04 18:42 60.19608 11.09650 678 ft 2 kts 304°
2026-05-04 18:42 60.19628 11.09603 678 ft 4 kts 316°
2026-05-04 18:42 60.19652 11.09557 678 ft 4 kts 315°
2026-05-04 18:43 60.19667 11.09499 678 ft 4 kts 287°
2026-05-04 18:43 60.19677 11.09430 678 ft 5 kts 285°
2026-05-04 18:43 60.19689 11.09343 678 ft 7 kts 284°
2026-05-04 18:43 60.19703 11.09234 678 ft 8 kts 287°
2026-05-04 18:44 60.19722 11.09107 678 ft 10 kts 286°
2026-05-04 18:44 60.19729 11.09059 678 ft 10 kts 286°
2026-05-04 18:44 60.19767 11.08802 677 ft 8 kts 284°
2026-05-04 18:44 60.19799 11.08703 676 ft 9 kts 341°
2026-05-04 18:45 60.19866 11.08723 676 ft 10 kts 18°
2026-05-04 18:45 60.19947 11.08768 677 ft 13 kts 18°
2026-05-04 18:45 60.20035 11.08815 677 ft 13 kts 16°
2026-05-04 18:45 60.20131 11.08869 678 ft 15 kts 15°
2026-05-04 18:46 60.20238 11.08924 678 ft 16 kts 14°
2026-05-04 18:46 60.20309 11.08968 678 ft 10 kts 18°
2026-05-04 18:46 60.20383 11.09017 679 ft 11 kts 17°
2026-05-04 18:46 60.20464 11.09067 679 ft 12 kts 17°
2026-05-04 18:47 60.20549 11.09117 679 ft 13 kts 16°
2026-05-04 18:47 60.20636 11.09113 680 ft 13 kts 312°
2026-05-04 18:47 60.20665 11.08934 679 ft 13 kts 285°
2026-05-04 18:47 60.20689 11.08740 678 ft 15 kts 281°
2026-05-04 18:48 60.20656 11.08618 677 ft 10 kts 198°
2026-05-04 18:48 60.20653 11.08616 677 ft 0 kts 197°
2026-05-04 18:48 60.20607 11.08588 677 ft 30 kts 195°
2026-05-04 18:49 60.20167 11.08336 675 ft 98 kts 197°
2026-05-04 18:49 60.19323 11.07874 725 ft 145 kts 198°
2026-05-04 18:49 60.18363 11.07460 1330 ft 144 kts 199°
2026-05-04 18:49 60.17358 11.06995 1878 ft 153 kts 203°
2026-05-04 18:50 60.16392 11.06206 2460 ft 152 kts 218°
2026-05-04 18:50 60.15641 11.04804 2967 ft 153 kts 243°
2026-05-04 18:50 60.15270 11.02712 3325 ft 167 kts 259°
2026-05-04 18:50 60.15076 11.00347 3809 ft 179 kts 264°
2026-05-04 18:51 60.14866 10.97817 4261 ft 193 kts 258°
2026-05-04 18:51 60.14468 10.95054 4574 ft 218 kts 255°
2026-05-04 18:51 60.14093 10.91991 4948 ft 239 kts 261°
2026-05-04 18:51 60.13852 10.88590 5447 ft 256 kts 265°
2026-05-04 18:52 60.13715 10.85027 6320 ft 258 kts 263°
2026-05-04 18:52 60.13280 10.81613 7302 ft 258 kts 253°
2026-05-04 18:52 60.12643 10.78283 8260 ft 258 kts 250°
2026-05-04 18:52 60.11950 10.75004 9175 ft 259 kts 251°
2026-05-04 18:53 60.11271 10.71715 10085 ft 258 kts 253°
2026-05-04 18:53 60.10696 10.68256 10704 ft 268 kts 256°
2026-05-04 18:53 60.10131 10.64623 11082 ft 286 kts 255°
2026-05-04 18:53 60.09462 10.60753 11432 ft 304 kts 254°
2026-05-04 18:54 60.08715 10.56684 11874 ft 317 kts 253°
2026-05-04 18:54 60.07944 10.52539 12678 ft 319 kts 253°
2026-05-04 18:54 60.07179 10.48442 13468 ft 320 kts 254°
2026-05-04 18:54 60.06399 10.44268 14286 ft 319 kts 253°
2026-05-04 18:55 60.05633 10.40179 15079 ft 318 kts 253°
2026-05-04 18:55 60.04089 10.31952 16542 ft 319 kts 252°
2026-05-04 18:55 60.03312 10.27820 17225 ft 321 kts 253°
2026-05-04 18:56 60.02514 10.23601 17830 ft 324 kts 252°
2026-05-04 18:56 60.01726 10.19424 18475 ft 325 kts 252°
2026-05-04 18:56 60.00923 10.15183 19084 ft 327 kts 253°
2026-05-04 18:56 60.00116 10.10923 19644 ft 330 kts 253°
2026-05-04 18:57 59.99307 10.06658 20180 ft 334 kts 252°
2026-05-04 18:57 59.98478 10.02313 20781 ft 335 kts 252°
2026-05-04 18:57 59.97647 9.97983 21291 ft 338 kts 253°
2026-05-04 18:57 59.96808 9.93599 21799 ft 341 kts 252°
2026-05-04 18:58 59.95955 9.89168 22322 ft 343 kts 252°
2026-05-04 18:58 59.95109 9.84775 22793 ft 346 kts 252°
2026-05-04 18:58 59.94238 9.80268 23282 ft 348 kts 252°
2026-05-04 18:58 59.93373 9.75797 23746 ft 350 kts 252°
2026-05-04 18:59 59.92497 9.71285 24160 ft 353 kts 252°
2026-05-04 18:59 59.91609 9.66715 24601 ft 355 kts 252°
2026-05-04 18:59 59.90722 9.62159 24953 ft 359 kts 253°
2026-05-04 18:59 59.89804 9.57447 25310 ft 363 kts 253°
2026-05-04 19:00 59.88892 9.52791 25726 ft 365 kts 252°
2026-05-04 19:00 59.87967 9.48055 26106 ft 367 kts 252°
2026-05-04 19:00 59.87040 9.43330 26415 ft 370 kts 252°
2026-05-04 19:00 59.86098 9.38560 26750 ft 373 kts 252°
2026-05-04 19:01 59.85150 9.33757 27101 ft 375 kts 251°
2026-05-04 19:01 59.84194 9.28934 27431 ft 378 kts 252°
2026-05-04 19:01 59.83237 9.24112 27716 ft 381 kts 252°
2026-05-04 19:01 59.82254 9.19171 27998 ft 384 kts 252°
2026-05-04 19:02 59.81277 9.14266 28303 ft 385 kts 251°
2026-05-04 19:02 59.80283 9.09297 28580 ft 388 kts 251°
2026-05-04 19:02 59.79290 9.04336 28906 ft 388 kts 251°
2026-05-04 19:02 59.78297 8.99389 29308 ft 387 kts 252°
2026-05-04 19:03 59.77300 8.94434 29682 ft 386 kts 251°
2026-05-04 19:03 59.76311 8.89529 30041 ft 386 kts 251°
2026-05-04 19:03 59.75323 8.84644 30383 ft 385 kts 251°
2026-05-04 19:03 59.74313 8.79673 30719 ft 385 kts 251°
2026-05-04 19:04 59.73323 8.74803 31016 ft 385 kts 251°
2026-05-04 19:04 59.72326 8.69913 31305 ft 385 kts 251°
2026-05-04 19:04 59.71333 8.65046 31561 ft 385 kts 251°
2026-05-04 19:04 59.70321 8.60097 31684 ft 387 kts 251°
2026-05-04 19:05 59.68303 8.50264 31683 ft 387 kts 251°
2026-05-04 19:05 59.66271 8.40429 31688 ft 387 kts 251°
2026-05-04 19:06 59.64254 8.30678 31702 ft 387 kts 250°
2026-05-04 19:06 59.62214 8.20844 31709 ft 387 kts 251°
2026-05-04 19:07 59.60160 8.10986 31723 ft 388 kts 251°
2026-05-04 19:07 59.58115 8.01205 31721 ft 387 kts 250°
2026-05-04 19:08 59.56022 7.91228 31726 ft 397 kts 251°
2026-05-04 19:08 59.53898 7.81168 31722 ft 400 kts 251°
2026-05-04 19:09 59.51754 7.71054 31741 ft 400 kts 251°
2026-05-04 19:09 59.49620 7.61029 31719 ft 398 kts 250°
2026-05-04 19:10 59.48554 7.56063 31472 ft 392 kts 251°
2026-05-04 19:10 59.47500 7.51148 30727 ft 394 kts 250°
2026-05-04 19:10 59.46443 7.46232 29722 ft 398 kts 251°
2026-05-04 19:10 59.45382 7.41291 28718 ft 400 kts 251°
2026-05-04 19:11 59.44289 7.36231 27704 ft 402 kts 251°
2026-05-04 19:11 59.43214 7.31260 26715 ft 403 kts 250°
2026-05-04 19:11 59.42128 7.26257 25963 ft 398 kts 250°
2026-05-04 19:11 59.41066 7.21383 25350 ft 392 kts 250°
2026-05-04 19:12 59.40015 7.16558 24700 ft 387 kts 250°
2026-05-04 19:12 59.37929 7.07012 23366 ft 379 kts 250°
2026-05-04 19:12 59.36890 7.02280 22754 ft 375 kts 250°
2026-05-04 19:13 59.35884 6.97702 22170 ft 370 kts 250°
2026-05-04 19:13 59.34872 6.93125 21525 ft 367 kts 250°
2026-05-04 19:13 59.33843 6.88623 20867 ft 365 kts 248°
2026-05-04 19:13 59.32589 6.84310 20217 ft 365 kts 242°
2026-05-04 19:14 59.31117 6.80328 19591 ft 366 kts 237°
2026-05-04 19:14 59.29511 6.76540 19003 ft 362 kts 236°
2026-05-04 19:14 59.27895 6.72785 18365 ft 359 kts 236°
2026-05-04 19:14 59.26315 6.69123 17714 ft 357 kts 236°
2026-05-04 19:15 59.24725 6.65454 17072 ft 355 kts 236°
2026-05-04 19:15 59.23132 6.61778 16435 ft 352 kts 236°
2026-05-04 19:15 59.21559 6.58160 15822 ft 349 kts 236°
2026-05-04 19:15 59.20002 6.54591 15225 ft 346 kts 236°
2026-05-04 19:16 59.18467 6.51068 14587 ft 344 kts 236°
2026-05-04 19:16 59.16939 6.47565 13955 ft 342 kts 236°
2026-05-04 19:16 59.15393 6.44026 13349 ft 340 kts 236°
2026-05-04 19:16 59.13744 6.40745 12712 ft 344 kts 227°
2026-05-04 19:17 59.11791 6.38099 12073 ft 351 kts 217°
2026-05-04 19:17 59.09599 6.35985 11433 ft 353 kts 213°
2026-05-04 19:17 59.07402 6.34014 10812 ft 352 kts 212°
2026-05-04 19:17 59.05199 6.32057 10328 ft 346 kts 211°
2026-05-04 19:18 59.03035 6.30140 9987 ft 337 kts 211°
2026-05-04 19:18 59.00945 6.28294 9915 ft 320 kts 211°
2026-05-04 19:18 58.98990 6.26567 9908 ft 303 kts 212°
2026-05-04 19:18 58.97140 6.24930 9909 ft 286 kts 212°
2026-05-04 19:19 58.95383 6.23370 9907 ft 273 kts 213°
2026-05-04 19:19 58.93655 6.21821 9904 ft 273 kts 213°
2026-05-04 19:19 58.91955 6.20293 9912 ft 273 kts 213°
2026-05-04 19:19 58.90206 6.18729 9900 ft 274 kts 213°
2026-05-04 19:20 58.88502 6.17212 9895 ft 273 kts 213°
2026-05-04 19:20 58.86761 6.15665 9887 ft 274 kts 213°
2026-05-04 19:20 58.85083 6.14185 9868 ft 265 kts 213°
2026-05-04 19:20 58.83444 6.12747 9871 ft 249 kts 213°
2026-05-04 19:21 58.81922 6.11381 9850 ft 233 kts 219°
2026-05-04 19:21 58.80820 6.09356 9463 ft 216 kts 246°
2026-05-04 19:21 58.80118 6.06812 9087 ft 217 kts 248°
2026-05-04 19:21 58.79385 6.04252 8724 ft 218 kts 246°
2026-05-04 19:22 58.78632 6.01718 8371 ft 219 kts 245°
2026-05-04 19:22 58.77862 5.99195 8019 ft 220 kts 246°
2026-05-04 19:22 58.77076 5.96659 7660 ft 221 kts 245°
2026-05-04 19:22 58.76287 5.94132 7309 ft 221 kts 245°
2026-05-04 19:23 58.75487 5.91589 6960 ft 222 kts 245°
2026-05-04 19:23 58.74689 5.89061 6623 ft 221 kts 245°
2026-05-04 19:23 58.73883 5.86517 6280 ft 222 kts 244°
2026-05-04 19:23 58.73087 5.84007 5944 ft 222 kts 244°
2026-05-04 19:24 58.72288 5.81490 5613 ft 222 kts 244°
2026-05-04 19:24 58.71487 5.78969 5273 ft 222 kts 246°
2026-05-04 19:24 58.71017 5.76216 4879 ft 213 kts 277°
2026-05-04 19:24 58.71397 5.73535 4546 ft 209 kts 294°
2026-05-04 19:25 58.71909 5.70942 4292 ft 206 kts 292°
2026-05-04 19:25 58.72389 5.68372 4002 ft 205 kts 292°
2026-05-04 19:25 58.72863 5.65790 3730 ft 203 kts 294°
2026-05-04 19:25 58.73613 5.63617 3261 ft 192 kts 328°
2026-05-04 19:26 58.74853 5.63107 2687 ft 188 kts
2026-05-04 19:26 58.76125 5.63568 2251 ft 183 kts
2026-05-04 19:26 58.77327 5.63798 2014 ft 168 kts
2026-05-04 19:26 58.78443 5.63899 1745 ft 151 kts 359°
2026-05-04 19:27 58.79435 5.63935 1503 ft 136 kts 358°
2026-05-04 19:27 58.80332 5.64027 1301 ft 123 kts 360°
2026-05-04 19:27 58.81187 5.63951 1177 ft 124 kts 355°
2026-05-04 19:27 58.82039 5.63940 1039 ft 124 kts
2026-05-04 19:28 58.82899 5.63963 880 ft 123 kts 354°
2026-05-04 19:28 58.83749 5.63871 725 ft 123 kts 356°
2026-05-04 19:28 58.84601 5.63865 569 ft 123 kts 358°
2026-05-04 19:28 58.85444 5.63848 386 ft 122 kts 357°
2026-05-04 19:29 58.86296 5.63826 225 ft 122 kts 357°
2026-05-04 19:29 58.87140 5.63795 48 ft 121 kts 357°
2026-05-04 19:29 58.87907 5.63765 30 ft 92 kts
2026-05-04 19:29 58.88406 5.63755 28 ft 50 kts
2026-05-04 19:30 58.88633 5.63754 26 ft 15 kts 359°
2026-05-04 19:30 58.88702 5.63695 25 ft 7 kts 298°
2026-05-04 19:30 58.88710 5.63630 25 ft 2 kts 271°
2026-05-04 19:30 58.88710 5.63586 25 ft 3 kts 270°
2026-05-04 19:31 58.88710 5.63529 25 ft 4 kts 270°
2026-05-04 19:31 58.88709 5.63463 25 ft 5 kts 258°
2026-05-04 19:31 58.88679 5.63420 25 ft 6 kts 187°
2026-05-04 19:31 58.88631 5.63423 26 ft 7 kts 179°
2026-05-04 19:32 58.88575 5.63424 26 ft 8 kts 181°
2026-05-04 19:32 58.88511 5.63422 27 ft 9 kts 181°
2026-05-04 19:32 58.88451 5.63371 27 ft 10 kts 244°
2026-05-04 19:32 58.88426 5.63250 26 ft 8 kts 235°
2026-05-04 19:33 58.88370 5.63226 27 ft 9 kts 163°
2026-05-04 19:33 58.88304 5.63268 27 ft 10 kts 163°
2026-05-04 19:33 58.88238 5.63300 27 ft 8 kts 172°
2026-05-04 19:33 58.88182 5.63283 27 ft 8 kts 245°
2026-05-04 19:34 58.88189 5.63166 26 ft 5 kts 286°
2026-05-04 19:34 58.88197 5.63113 26 ft 2 kts 285°
2026-05-04 19:34 58.88199 5.63099 26 ft 0 kts 285°